THORAD AGENA D DEB, 4818

Orbit data source: Space-Track

THORAD AGENA D DEB, 4818 is space debris in SSO originally from a launch on Wed, 08 Apr 1970 UTC launched from the Air Force Western Test Range (AFWTR). Debris objects in space refer to the collection of defunct objects orbiting the Earth. Examples of debris include non-operational satellites, rocket bodies, and fragments generated from explosions, collisions, or faulty payload assembly.

Loading next visibility...
Identifier
4818, 1970-025DZ
Orbit
SSO
Country
Flag of USUS
Related business
Manufacturer
Unknown
Mission
Spacecraft
Bus & Motor
Unknown
Mass
Unknown
Launch date (UTC)
1970-04-08 (56 years ago)
Launch vehicle
Unknown
Launch site
Air Force Western Test Range (AFWTR)
Object type
Payload
Rocket body
Debris
Shape & HBR
Unknown shape, 0.1 m
Radar Cross Section
Medium (>0.1 m² and <1 m²)

Expand to show TLE details & history
Last TLE update: 8 hours ago

TLE from 8 hours ago
0 THORAD AGENA D DEB
1 04818U 70025DZ  25353.25967428  .00000234  00000-0  66327-3 0  9992
2 04818  99.8974 272.9292 0268310 250.5197 267.1860 13.10233351656257
Epoch: 2025-12-19T06:13Z
TLE epoch observation values (Epoch: 2025-12-19T06:13:55.857Z)
Latitude
24.98314°
Longitude
-84.0172°
Altitude
1,240.576 km
Speed
7.229 km/s
True Right ascension
06h 30m 16s
True Declination
24° 51' 36"
Sunlit
Object was in full shadow at epoch
Visualization orbit readout
Latitude
Unknown
Longitude
Unknown
Altitude
Unknown
Speed
Unknown
Apparent Right ascension
Unknown
Apparent Declination
Unknown
Sunlit
N/A
Visualization observer readout
Local Sidereal Time
12:47:47
Azimuth
Unknown
Elevation
Unknown
Doppler factor
Unknown
Orbital elements
Apogee altitude
1,423.474 km
Perigee altitude
1,015.763 km
Semi-major axis
7,597.755 km
Eccentricity
0.02683
Inclination
99.8974°
RAAN
272.9292°
Arg. of periapsis
250.5197°
True anomaly
264.12161°
Mean anomaly
267.186°
Eccentric anomaly
265.65312°
Mean motion
3.27729 °/min
Orbital period
109.85 mins
BSTAR
0.00066327
Loading maneuver chart data...
Computing Atmospheric mass density...

Documentation

Showing up to 5 results
|